sampling_time,wmo_synop_id,msc_id,stn_nam,stn_elev,lat,long,stn_typ,date_tm,rpt_typ,result_time,crnt_buoy_lat,crnt_buoy_lat_qa_summary,crnt_buoy_long,crnt_buoy_long_qa_summary,avg_air_temp_pst10mts,avg_air_temp_pst10mts_qa_summary,avg_sea_sfc_temp_pst10mts,avg_sea_sfc_temp_pst10mts_qa_summary,avg_batry_volt_pst10mts,avg_batry_volt_pst10mts_qa_summary,avg_solr_panl_crnt_pst10mts,avg_solr_panl_crnt_pst10mts_qa_summary,avg_wtr_lvl_snsr_volt_pst10mts,avg_wtr_lvl_snsr_volt_pst10mts_qa_summary,avg_wave_hgt_pst20mts,avg_wave_hgt_pst20mts_qa_summary,pk_wave_hgt_pst20mts,pk_wave_hgt_pst20mts_qa_summary,sig_wave_pd_pst20mts,sig_wave_pd_pst20mts_qa_summary,sig_wave_hgt_pst20mts,sig_wave_hgt_pst20mts_qa_summary,avg_max_wave_hgt_pst20mts,avg_max_wave_hgt_pst20mts_qa_summary,avg_max_wave_pd_pst20mts,avg_max_wave_pd_pst20mts_qa_summary,avg_wave_pd_pst20mts,avg_wave_pd_pst20mts_qa_summary,pk_wave_pd_pst20mts,pk_wave_pd_pst20mts_qa_summary,avg_stn_pres_pst10mts,avg_stn_pres_pst10mts_qa_summary,avg_wnd_spd_pst10mts,avg_wnd_spd_pst10mts_qa_summary,avg_wnd_dir_pst10mts,avg_wnd_dir_pst10mts_qa_summary,max_avg_wnd_spd_pst10mts,max_avg_wnd_spd_pst10mts_qa_summary,wnd_snsr_vert_disp,wnd_snsr_vert_disp_qa_summary,pres_tend_char_pst3hrs,pres_tend_char_pst3hrs_data_flag,pres_tend_amt_pst3hrs,pres_tend_amt_pst3hrs_data_flag,avg_mslp_pst10mts,avg_mslp_pst10mts_data_flag,avg_stn_pres_pst10mts_1,avg_stn_pres_pst10mts_2,avg_wnd_spd_pst10mts_1,avg_wnd_spd_pst10mts_2,avg_wnd_dir_pst10mts_1,avg_wnd_dir_pst10mts_2,max_avg_wnd_spd_pst10mts_1,max_avg_wnd_spd_pst10mts_2,wnd_snsr_vert_disp_1,wnd_snsr_vert_disp_2
2020-09-21T00:00:00Z,44490,9300300,West Bay of Fundy,0.0,44.66056,-66.3686,18,2020-09-21T00:00:00.000Z,108,2020-09-21T00:03:12.017Z,44.66297,100,-66.36385,100,12.2,100,13.2,100,12.8,100,0.0,100,3.5,100,0.3,100,0.8,100,5.4,100,0.4,100,0.6,100,7.7,100,4.2,100,13.3,100,1033.9,100,7.9,100,335,100,9.4,100,5.0,100,2,1,1.3,1,1033.9,1,1033.9,1033.9,7.9,7.6,335,337,9.4,9.0,5.0,4.0
2020-09-21T00:10:00Z,44490,9300300,West Bay of Fundy,0.0,44.66056,-66.3686,18,2020-09-21T00:10:00.000Z,110,2020-09-21T00:12:32.146Z,44.66325,100,-66.36348000000001,100,12.8,100,13.7,100,12.8,100,0.0,100,3.5,100,,-1,,-1,,-1,,-1,,-1,,-1,,-1,,-1,1033.9,100,6.8,100,335,100,9.0,100,5.0,100,1,1,1.3,1,1033.9,1,1033.9,1033.9,6.8,6.8,335,337,9.0,9.4,5.0,4.0
2020-09-21T00:20:00Z,44490,9300300,West Bay of Fundy,0.0,44.66056,-66.3686,18,2020-09-21T00:20:00.000Z,110,2020-09-21T00:22:35.692Z,44.66357,100,-66.3633,100,12.2,100,13.2,100,12.8,100,0.0,100,3.5,100,,-1,,-1,,-1,,-1,,-1,,-1,,-1,,-1,1033.9,100,8.3,100,327,100,10.4,100,5.0,100,1,1,1.3,1,1033.9,1,1033.9,1033.9,8.3,8.6,327,329,10.4,10.4,5.0,4.0
2020-09-21T00:30:00Z,44490,9300300,West Bay of Fundy,0.0,44.66056,-66.3686,18,2020-09-21T00:30:00.000Z,110,2020-09-21T00:32:38.426Z,44.66392000000001,100,-66.3633,100,12.2,100,13.1,100,12.8,100,0.0,100,3.5,100,,-1,,-1,,-1,,-1,,-1,,-1,,-1,,-1,1034.0,100,9.7,100,329,100,11.9,100,5.0,100,1,1,1.3,1,1034.0,1,1034.0,1034.0,9.7,9.7,329,331,11.9,11.9,5.0,4.0
2020-09-21T00:40:00Z,44490,9300300,West Bay of Fundy,0.0,44.66056,-66.3686,18,2020-09-21T00:40:00.000Z,110,2020-09-21T00:42:48.483Z,44.664320000000004,100,-66.36333,100,12.3,100,13.1,100,12.8,100,0.0,100,3.5,100,,-1,,-1,,-1,,-1,,-1,,-1,,-1,,-1,1034.1,100,9.7,100,336,100,11.9,100,5.0,100,1,1,1.2,1,1034.1,1,1034.1,1034.0,9.7,10.1,336,339,11.9,12.2,5.0,4.0
2020-09-21T00:50:00Z,44490,9300300,West Bay of Fundy,0.0,44.66056,-66.3686,18,2020-09-21T00:50:00.000Z,110,2020-09-21T00:52:48.330Z,44.664629999999995,100,-66.36313,100,12.3,100,13.2,100,12.8,100,0.0,100,3.5,100,,-1,,-1,,-1,,-1,,-1,,-1,,-1,,-1,1034.1,100,9.0,100,339,100,10.4,100,5.0,100,1,1,1.2,1,1034.1,1,1034.1,1034.1,9.0,9.4,339,341,10.4,10.8,5.0,4.0
2020-09-21T01:00:00Z,44490,9300300,West Bay of Fundy,0.0,44.66056,-66.3686,18,2020-09-21T01:00:00.000Z,108,2020-09-21T01:02:49.107Z,44.6648,100,-66.36308000000001,100,12.3,100,13.1,100,12.8,100,0.0,100,3.5,100,0.3,100,0.9,100,7.3,100,0.4,100,0.6,100,10.9,100,5.2,100,13.3,100,1034.2,100,9.7,100,340,100,11.9,100,5.0,100,1,1,1.2,1,1034.2,1,1034.2,1034.1,9.7,10.1,340,342,11.9,12.2,5.0,4.0
2020-09-21T01:10:00Z,44490,9300300,West Bay of Fundy,0.0,44.66056,-66.3686,18,2020-09-21T01:10:00.000Z,110,2020-09-21T01:17:04.013Z,44.66495,100,-66.36308000000001,100,12.4,100,13.1,100,12.8,100,0.0,100,3.5,100,,-1,,-1,,-1,,-1,,-1,,-1,,-1,,-1,1034.2,100,11.5,100,335,100,13.3,100,5.0,100,2,1,1.1,1,1034.2,1,1034.2,1034.2,11.5,11.9,335,336,13.3,13.7,5.0,4.0
2020-09-21T01:20:00Z,44490,9300300,West Bay of Fundy,0.0,44.66056,-66.3686,18,2020-09-21T01:20:00.000Z,110,2020-09-21T01:22:53.346Z,44.66512,100,-66.3632,100,12.4,100,13.1,100,12.8,100,0.0,100,3.5,100,,-1,,-1,,-1,,-1,,-1,,-1,,-1,,-1,1034.3,100,13.0,100,330,100,15.1,100,5.0,100,2,1,1.1,1,1034.3,1,1034.3,1034.2,13.0,13.7,330,331,15.1,15.5,5.0,4.0
2020-09-21T01:30:00Z,44490,9300300,West Bay of Fundy,0.0,44.66056,-66.3686,18,2020-09-21T01:30:00.000Z,110,2020-09-21T01:32:54.915Z,44.66527,100,-66.36338,100,12.4,100,13.1,100,12.8,100,0.0,100,3.5,100,,-1,,-1,,-1,,-1,,-1,,-1,,-1,,-1,1034.3,100,11.2,100,327,100,13.3,100,5.0,100,1,1,1.1,1,1034.3,1,1034.3,1034.3,11.2,11.2,327,329,13.3,13.7,5.0,4.0
2020-09-21T01:40:00Z,44490,9300300,West Bay of Fundy,0.0,44.66056,-66.3686,18,2020-09-21T01:40:00.000Z,110,2020-09-21T01:43:08.649Z,44.66535,100,-66.36346999999999,100,12.5,100,13.1,100,12.8,100,0.0,100,3.5,100,,-1,,-1,,-1,,-1,,-1,,-1,,-1,,-1,1034.4,100,10.4,100,324,100,11.9,100,5.0,100,1,1,1.0,1,1034.4,1,1034.4,1034.3,10.4,10.4,324,327,11.9,12.2,5.0,4.0
2020-09-21T01:50:00Z,44490,9300300,West Bay of Fundy,0.0,44.66056,-66.3686,18,2020-09-21T01:50:00.000Z,110,2020-09-21T01:53:05.925Z,44.66545,100,-66.36343000000001,100,12.5,100,13.2,100,12.7,100,0.0,100,3.5,100,,-1,,-1,,-1,,-1,,-1,,-1,,-1,,-1,1034.4,100,10.1,100,317,100,12.2,100,5.0,100,1,1,1.0,1,1034.4,1,1034.4,1034.4,10.1,10.4,317,320,12.2,13.0,5.0,4.0
2020-09-21T02:00:00Z,44490,9300300,West Bay of Fundy,0.0,44.66056,-66.3686,18,2020-09-21T02:00:00.000Z,108,2020-09-21T02:03:13.614Z,44.66547,100,-66.36348000000001,100,12.5,100,13.2,100,12.8,100,0.0,100,3.5,100,0.2,100,0.8,100,9.9,100,0.4,10,0.6,100,12.4,100,6.2,100,14.3,100,1034.5,100,11.5,100,316,100,12.6,100,5.0,100,1,1,1.0,1,1034.5,1,1034.5,1034.4,11.5,11.5,316,319,12.6,13.0,5.0,4.0
2020-09-21T02:10:00Z,44490,9300300,West Bay of Fundy,0.0,44.66056,-66.3686,18,2020-09-21T02:10:00.000Z,110,2020-09-21T02:16:20.848Z,44.6655,100,-66.3635,100,12.5,100,13.2,100,12.8,100,0.0,100,3.5,100,,-1,,-1,,-1,,-1,,-1,,-1,,-1,,-1,1034.5,100,11.5,100,325,100,13.3,100,5.0,100,1,1,1.1,1,1034.5,1,1034.5,1034.5,11.5,11.5,325,327,13.3,13.3,5.0,4.0
2020-09-21T02:20:00Z,44490,9300300,West Bay of Fundy,0.0,44.66056,-66.3686,18,2020-09-21T02:20:00.000Z,110,2020-09-21T02:23:22.025Z,44.6655,100,-66.36355,100,12.6,100,13.2,100,12.8,100,0.0,100,3.5,100,,-1,,-1,,-1,,-1,,-1,,-1,,-1,,-1,1034.6,100,11.5,100,327,100,13.3,100,5.0,100,1,1,1.0,1,1034.6,1,1034.6,1034.5,11.5,11.5,327,329,13.3,13.7,5.0,4.0
2020-09-21T02:30:00Z,44490,9300300,West Bay of Fundy,0.0,44.66056,-66.3686,18,2020-09-21T02:30:00.000Z,110,2020-09-21T02:33:23.102Z,44.6655,100,-66.36355,100,12.6,100,13.2,100,12.8,100,0.0,100,3.5,100,,-1,,-1,,-1,,-1,,-1,,-1,,-1,,-1,1034.6,100,11.2,100,328,100,13.7,100,5.0,100,1,1,0.9,1,1034.6,1,1034.6,1034.5,11.2,11.2,328,330,13.7,13.7,5.0,4.0
2020-09-21T02:40:00Z,44490,9300300,West Bay of Fundy,0.0,44.66056,-66.3686,18,2020-09-21T02:40:00.000Z,110,2020-09-21T02:43:25.520Z,44.6655,100,-66.36348000000001,100,12.6,100,13.2,100,12.7,100,0.0,100,3.5,100,,-1,,-1,,-1,,-1,,-1,,-1,,-1,,-1,1034.5,100,11.5,100,335,100,15.1,100,5.0,100,1,1,0.8,1,1034.5,1,1034.5,1034.5,11.5,11.2,335,336,15.1,14.8,5.0,4.0
2020-09-21T02:50:00Z,44490,9300300,West Bay of Fundy,0.0,44.66056,-66.3686,18,2020-09-21T02:50:00.000Z,110,2020-09-21T02:53:28.243Z,44.6655,100,-66.36346999999999,100,12.6,100,13.2,100,12.7,100,0.0,100,3.5,100,,-1,,-1,,-1,,-1,,-1,,-1,,-1,,-1,1034.5,100,13.7,100,329,100,16.6,100,5.0,100,1,1,0.6,1,1034.5,1,1034.5,1034.5,13.7,13.7,329,331,16.6,16.2,5.0,4.0
2020-09-21T03:00:00Z,44490,9300300,West Bay of Fundy,0.0,44.66056,-66.3686,18,2020-09-21T03:00:00.000Z,108,2020-09-21T03:02:50.303Z,44.66552,100,-66.36345,100,12.7,100,13.2,100,12.7,100,0.0,100,3.5,100,0.2,100,0.6,100,11.9,100,0.4,100,0.5,100,13.0,100,6.9,100,14.3,100,1034.4,100,13.7,100,322,100,15.8,100,5.0,100,1,1,0.5,1,1034.4,1,1034.4,1034.4,13.7,13.7,322,324,15.8,15.8,5.0,4.0
2020-09-21T03:10:00Z,44490,9300300,West Bay of Fundy,0.0,44.66056,-66.3686,18,2020-09-21T03:10:00.000Z,110,2020-09-21T03:15:37.298Z,44.6655,100,-66.36343000000001,100,12.5,100,13.2,100,12.8,100,0.0,100,3.5,100,,-1,,-1,,-1,,-1,,-1,,-1,,-1,,-1,1034.4,100,13.0,100,321,100,15.1,100,5.0,100,0,1,0.5,1,1034.4,1,1034.4,1034.3,13.0,12.6,321,323,15.1,15.1,5.0,4.0
2020-09-21T03:20:00Z,44490,9300300,West Bay of Fundy,0.0,44.66056,-66.3686,18,2020-09-21T03:20:00.000Z,110,2020-09-21T03:22:34.970Z,44.6655,100,-66.36345,100,12.7,100,13.2,100,12.7,100,0.0,100,3.5,100,,-1,,-1,,-1,,-1,,-1,,-1,,-1,,-1,1034.3,100,12.2,100,336,100,15.8,100,5.0,100,0,1,0.4,1,1034.3,1,1034.3,1034.3,12.2,12.2,336,338,15.8,15.8,5.0,4.0
2020-09-21T03:30:00Z,44490,9300300,West Bay of Fundy,0.0,44.66056,-66.3686,18,2020-09-21T03:30:00.000Z,110,2020-09-21T03:32:31.773Z,44.66552,100,-66.36348000000001,100,12.7,100,13.2,100,12.7,100,0.0,100,3.5,100,,-1,,-1,,-1,,-1,,-1,,-1,,-1,,-1,1034.3,100,12.2,100,346,100,16.6,100,5.0,100,0,1,0.3,1,1034.3,1,1034.3,1034.2,12.2,12.2,346,348,16.6,16.6,5.0,4.0
2020-09-21T03:40:00Z,44490,9300300,West Bay of Fundy,0.0,44.66056,-66.3686,18,2020-09-21T03:40:00.000Z,110,2020-09-21T03:42:43.666Z,44.66552,100,-66.36345,100,12.7,100,13.2,100,12.7,100,0.0,100,3.5,100,,-1,,-1,,-1,,-1,,-1,,-1,,-1,,-1,1034.2,100,12.2,100,354,100,15.5,100,5.0,100,0,1,0.2,1,1034.2,1,1034.2,1034.2,12.2,12.2,354,356,15.5,15.5,5.0,4.0
2020-09-21T03:50:00Z,44490,9300300,West Bay of Fundy,0.0,44.66056,-66.3686,18,2020-09-21T03:50:00.000Z,110,2020-09-21T03:52:45.638Z,44.66552,100,-66.36341999999999,100,12.6,100,13.2,100,12.7,100,0.0,100,3.5,100,,-1,,-1,,-1,,-1,,-1,,-1,,-1,,-1,1034.3,100,11.9,100,6,100,15.1,100,5.0,100,0,1,0.2,1,1034.3,1,1034.3,1034.2,11.9,11.9,6,8,15.1,14.8,5.0,4.0
2020-09-21T04:00:00Z,44490,9300300,West Bay of Fundy,0.0,44.66056,-66.3686,18,2020-09-21T04:00:00.000Z,108,2020-09-21T04:02:50.811Z,44.6655,100,-66.36343000000001,100,12.6,100,13.2,100,12.7,100,0.0,100,3.5,100,0.2,100,0.7,100,13.4,100,0.4,100,0.6,100,14.7,100,7.3,100,15.4,100,1034.2,100,12.6,100,3,100,14.8,100,5.0,100,0,1,0.1,1,1034.2,1,1034.2,1034.2,12.6,12.2,3,5,14.8,14.4,5.0,4.0
2020-09-21T04:10:00Z,44490,9300300,West Bay of Fundy,0.0,44.66056,-66.3686,18,2020-09-21T04:10:00.000Z,110,2020-09-21T04:15:50.289Z,44.66548,100,-66.36338,100,12.6,100,13.2,100,12.7,100,0.0,100,3.5,100,,-1,,-1,,-1,,-1,,-1,,-1,,-1,,-1,1034.2,100,11.9,100,6,100,13.7,100,5.0,100,0,1,0.0,1,1034.2,1,1034.2,1034.2,11.9,11.9,6,8,13.7,13.7,5.0,4.0
2020-09-21T04:20:00Z,44490,9300300,West Bay of Fundy,0.0,44.66056,-66.3686,18,2020-09-21T04:20:00.000Z,110,2020-09-21T04:22:48.191Z,44.66547,100,-66.36335,100,12.6,100,13.2,100,12.7,100,0.0,100,3.5,100,,-1,,-1,,-1,,-1,,-1,,-1,,-1,,-1,1034.2,100,12.2,100,8,100,14.8,100,5.0,100,8,1,-0.1,1,1034.2,1,1034.2,1034.1,12.2,11.9,8,10,14.8,14.8,5.0,4.0
2020-09-21T04:30:00Z,44490,9300300,West Bay of Fundy,0.0,44.66056,-66.3686,18,2020-09-21T04:30:00.000Z,110,2020-09-21T04:33:01.422Z,44.66547,100,-66.36336999999999,100,12.6,100,13.1,100,12.7,100,0.0,100,3.5,100,,-1,,-1,,-1,,-1,,-1,,-1,,-1,,-1,1034.1,100,12.6,100,11,100,15.5,100,5.0,100,8,1,-0.2,1,1034.1,1,1034.1,1034.1,12.6,12.6,11,13,15.5,15.1,5.0,4.0
2020-09-21T04:40:00Z,44490,9300300,West Bay of Fundy,0.0,44.66056,-66.3686,18,2020-09-21T04:40:00.000Z,110,2020-09-21T04:42:55.107Z,44.66547,100,-66.36336999999999,100,12.6,100,13.1,100,12.7,100,0.0,100,3.5,100,,-1,,-1,,-1,,-1,,-1,,-1,,-1,,-1,1034.1,100,13.3,100,17,100,15.8,100,5.0,100,8,1,-0.2,1,1034.1,1,1034.1,1034.1,13.3,13.0,17,19,15.8,15.8,5.0,4.0
2020-09-21T04:50:00Z,44490,9300300,West Bay of Fundy,0.0,44.66056,-66.3686,18,2020-09-21T04:50:00.000Z,110,2020-09-21T04:52:53.290Z,44.66543,100,-66.36332,100,12.6,100,13.1,100,12.7,100,0.0,100,3.5,100,,-1,,-1,,-1,,-1,,-1,,-1,,-1,,-1,1034.2,100,13.3,100,15,100,16.9,100,5.0,100,8,1,-0.2,1,1034.2,1,1034.2,1034.2,13.3,13.0,15,17,16.9,16.9,5.0,4.0
2020-09-21T05:00:00Z,44490,9300300,West Bay of Fundy,0.0,44.66056,-66.3686,18,2020-09-21T05:00:00.000Z,108,2020-09-21T05:02:54.888Z,44.6654,100,-66.36327,100,12.5,100,13.0,100,12.7,100,0.0,100,3.5,100,0.2,100,0.6,100,8.4,100,0.3,100,0.4,100,12.4,100,5.4,100,15.4,100,1034.3,100,14.0,100,19,100,16.9,100,5.0,100,5,1,-0.2,1,1034.3,1,1034.3,1034.3,14.0,14.0,19,21,16.9,16.6,5.0,4.0
2020-09-21T05:10:00Z,44490,9300300,West Bay of Fundy,0.0,44.66056,-66.3686,18,2020-09-21T05:10:00.000Z,110,2020-09-21T05:16:10.709Z,44.665279999999996,100,-66.36313,100,12.5,100,13.0,100,12.7,100,0.0,100,3.5,100,,-1,,-1,,-1,,-1,,-1,,-1,,-1,,-1,1034.3,100,13.3,100,24,100,15.5,100,5.0,100,5,1,-0.2,1,1034.3,1,1034.3,1034.3,13.3,13.0,24,26,15.5,15.5,5.0,4.0
2020-09-21T05:20:00Z,44490,9300300,West Bay of Fundy,0.0,44.66056,-66.3686,18,2020-09-21T05:20:00.000Z,110,2020-09-21T05:23:08.014Z,44.66527,100,-66.3631,100,12.4,100,13.0,100,12.7,100,0.0,100,3.5,100,,-1,,-1,,-1,,-1,,-1,,-1,,-1,,-1,1034.3,100,13.3,100,31,100,16.2,100,5.0,100,5,1,-0.3,1,1034.3,1,1034.3,1034.3,13.3,13.0,31,33,16.2,16.2,5.0,4.0
2020-09-21T05:30:00Z,44490,9300300,West Bay of Fundy,0.0,44.66056,-66.3686,18,2020-09-21T05:30:00.000Z,110,2020-09-21T05:33:12.806Z,44.6652,100,-66.36303000000001,100,12.3,100,12.9,100,12.7,100,0.0,100,3.5,100,,-1,,-1,,-1,,-1,,-1,,-1,,-1,,-1,1034.3,100,13.0,100,31,100,16.2,100,5.0,100,5,1,-0.3,1,1034.3,1,1034.3,1034.2,13.0,13.0,31,33,16.2,16.2,5.0,4.0
2020-09-21T05:40:00Z,44490,9300300,West Bay of Fundy,0.0,44.66056,-66.3686,18,2020-09-21T05:40:00.000Z,110,2020-09-21T05:43:19.248Z,44.66513,100,-66.36298000000001,100,12.3,100,12.9,100,12.7,100,0.0,100,3.5,100,,-1,,-1,,-1,,-1,,-1,,-1,,-1,,-1,1034.3,100,13.3,100,28,100,15.5,100,5.0,100,5,1,-0.3,1,1034.3,1,1034.3,1034.2,13.3,13.3,28,30,15.5,15.5,5.0,4.0
2020-09-21T05:50:00Z,44490,9300300,West Bay of Fundy,0.0,44.66056,-66.3686,18,2020-09-21T05:50:00.000Z,110,2020-09-21T05:53:13.997Z,44.66503,100,-66.36295,100,12.2,100,13.0,100,12.7,100,0.0,100,3.5,100,,-1,,-1,,-1,,-1,,-1,,-1,,-1,,-1,1034.2,100,13.3,100,31,100,16.2,100,5.0,100,6,1,-0.2,1,1034.2,1,1034.2,1034.2,13.3,13.3,31,33,16.2,16.2,5.0,4.0
2020-09-21T06:00:00Z,44490,9300300,West Bay of Fundy,0.0,44.66056,-66.3686,18,2020-09-21T06:00:00.000Z,108,2020-09-21T06:03:13.981Z,44.66482,100,-66.36278,100,12.1,100,12.9,100,12.7,100,0.0,100,3.5,100,0.2,100,0.6,100,8.1,100,0.3,100,0.4,100,12.2,100,5.3,100,16.7,100,1034.2,100,10.8,100,64,100,14.8,100,5.0,100,6,1,-0.2,1,1034.2,1,1034.2,1034.2,10.8,10.8,64,66,14.8,14.8,5.0,4.0
2020-09-21T06:10:00Z,44490,9300300,West Bay of Fundy,0.0,44.66056,-66.3686,18,2020-09-21T06:10:00.000Z,110,2020-09-21T06:16:27.416Z,44.66473,100,-66.36285,100,11.9,100,12.9,100,12.7,100,0.0,100,3.5,100,,-1,,-1,,-1,,-1,,-1,,-1,,-1,,-1,1034.3,100,9.7,100,101,100,12.2,100,5.0,100,6,1,-0.1,1,1034.3,1,1034.3,1034.2,9.7,9.4,101,104,12.2,11.9,5.0,4.0
2020-09-21T06:20:00Z,44490,9300300,West Bay of Fundy,0.0,44.66056,-66.3686,18,2020-09-21T06:20:00.000Z,110,2020-09-21T06:23:15.454Z,44.66452,100,-66.36278,100,11.7,100,12.9,100,12.7,100,0.0,100,3.5,100,,-1,,-1,,-1,,-1,,-1,,-1,,-1,,-1,1034.4,100,10.4,100,109,100,12.6,100,5.0,100,5,1,0.0,1,1034.4,1,1034.4,1034.3,10.4,10.1,109,112,12.6,12.2,5.0,4.0
2020-09-21T06:30:00Z,44490,9300300,West Bay of Fundy,0.0,44.66056,-66.3686,18,2020-09-21T06:30:00.000Z,110,2020-09-21T06:32:31.461Z,44.66412,100,-66.3628,100,11.7,100,13.0,100,12.7,100,0.0,100,3.5,100,,-1,,-1,,-1,,-1,,-1,,-1,,-1,,-1,1034.4,100,10.8,100,109,100,12.2,100,5.0,100,3,1,0.2,1,1034.4,1,1034.4,1034.4,10.8,10.4,109,111,12.2,11.9,5.0,4.0
2020-09-21T06:40:00Z,44490,9300300,West Bay of Fundy,0.0,44.66056,-66.3686,18,2020-09-21T06:40:00.000Z,110,2020-09-21T06:42:32.079Z,44.66372,100,-66.36283,100,11.6,100,13.0,100,12.7,100,0.0,100,3.5,100,,-1,,-1,,-1,,-1,,-1,,-1,,-1,,-1,1034.4,100,11.9,100,109,100,14.0,100,5.0,100,3,1,0.2,1,1034.4,1,1034.4,1034.4,11.9,11.5,109,111,14.0,14.0,5.0,4.0
2020-09-21T06:50:00Z,44490,9300300,West Bay of Fundy,0.0,44.66056,-66.3686,18,2020-09-21T06:50:00.000Z,110,2020-09-21T06:52:32.022Z,44.6633,100,-66.36303000000001,100,11.6,100,13.0,100,12.7,100,0.0,100,3.5,100,,-1,,-1,,-1,,-1,,-1,,-1,,-1,,-1,1034.5,100,12.2,100,110,100,14.8,100,5.0,100,3,1,0.3,1,1034.5,1,1034.5,1034.5,12.2,12.2,110,112,14.8,14.4,5.0,4.0
2020-09-21T07:00:00Z,44490,9300300,West Bay of Fundy,0.0,44.66056,-66.3686,18,2020-09-21T07:00:00.000Z,108,2020-09-21T07:03:07.219Z,44.66298,100,-66.36355,100,11.5,100,13.0,100,12.7,100,0.0,100,3.5,100,0.2,100,0.5,100,7.5,100,0.3,100,0.4,100,11.9,100,4.1,100,15.4,100,1034.6,100,12.2,100,102,100,14.4,100,5.0,100,3,1,0.4,1,1034.6,1,1034.6,1034.5,12.2,12.2,102,104,14.4,14.4,5.0,4.0
2020-09-21T07:10:00Z,44490,9300300,West Bay of Fundy,0.0,44.66056,-66.3686,18,2020-09-21T07:10:00.000Z,110,2020-09-21T07:15:40.280Z,44.66272,100,-66.3641,100,11.5,100,13.0,100,12.7,100,0.0,100,3.5,100,,-1,,-1,,-1,,-1,,-1,,-1,,-1,,-1,1034.7,100,12.2,100,100,100,14.4,100,5.0,100,3,1,0.5,1,1034.7,1,1034.7,1034.7,12.2,11.9,100,101,14.4,14.4,5.0,4.0
2020-09-21T07:20:00Z,44490,9300300,West Bay of Fundy,0.0,44.66056,-66.3686,18,2020-09-21T07:20:00.000Z,110,2020-09-21T07:22:38.015Z,44.66243,100,-66.36438000000001,100,11.5,100,13.1,100,12.7,100,0.0,100,3.5,100,,-1,,-1,,-1,,-1,,-1,,-1,,-1,,-1,1034.8,100,11.5,100,98,100,14.0,100,5.0,100,3,1,0.6,1,1034.8,1,1034.8,1034.8,11.5,11.5,98,100,14.0,14.0,5.0,4.0
2020-09-21T07:30:00Z,44490,9300300,West Bay of Fundy,0.0,44.66056,-66.3686,18,2020-09-21T07:30:00.000Z,110,2020-09-21T07:32:37.842Z,44.66253,100,-66.36542,100,11.5,100,13.0,100,12.7,100,0.0,100,3.5,100,,-1,,-1,,-1,,-1,,-1,,-1,,-1,,-1,1034.8,100,12.2,100,90,100,14.4,100,5.0,100,3,1,0.7,1,1034.8,1,1034.8,1034.8,12.2,12.2,90,93,14.4,14.8,5.0,4.0
2020-09-21T07:40:00Z,44490,9300300,West Bay of Fundy,0.0,44.66056,-66.3686,18,2020-09-21T07:40:00.000Z,110,2020-09-21T07:42:45.093Z,44.66262,100,-66.36593,100,11.5,100,13.1,100,12.7,100,0.0,100,3.5,100,,-1,,-1,,-1,,-1,,-1,,-1,,-1,,-1,1034.9,100,12.2,100,85,100,14.8,100,5.0,100,3,1,0.7,1,1034.9,1,1034.9,1034.8,12.2,12.6,85,87,14.8,14.8,5.0,4.0
2020-09-21T07:50:00Z,44490,9300300,West Bay of Fundy,0.0,44.66056,-66.3686,18,2020-09-21T07:50:00.000Z,110,2020-09-21T07:52:39.768Z,44.6626,100,-66.36595,100,11.5,100,13.1,100,12.6,100,0.0,100,3.5,100,,-1,,-1,,-1,,-1,,-1,,-1,,-1,,-1,1035.0,100,11.9,100,77,100,14.0,100,5.0,100,3,1,0.7,1,1035.0,1,1035.0,1034.9,11.9,12.2,77,79,14.0,14.4,5.0,4.0
2020-09-21T08:00:00Z,44490,9300300,West Bay of Fundy,0.0,44.66056,-66.3686,18,2020-09-21T08:00:00.000Z,108,2020-09-21T08:03:08.137Z,44.66263,100,-66.36613,100,11.5,100,13.1,100,12.7,100,0.0,100,3.5,100,0.2,100,0.7,100,5.1,100,0.3,100,0.4,100,8.0,100,3.9,100,16.7,100,1035.1,100,11.5,100,72,100,14.0,100,5.0,100,3,1,0.8,1,1035.1,1,1035.1,1035.0,11.5,11.9,72,73,14.0,14.0,5.0,4.0
2020-09-21T08:10:00Z,44490,9300300,West Bay of Fundy,0.0,44.66056,-66.3686,18,2020-09-21T08:10:00.000Z,110,2020-09-21T08:16:08.567Z,44.66252,100,-66.366,100,11.5,100,13.1,100,12.7,100,0.0,100,3.5,100,,-1,,-1,,-1,,-1,,-1,,-1,,-1,,-1,1035.1,100,11.9,100,69,100,14.4,100,5.0,100,3,1,0.8,1,1035.1,1,1035.1,1035.1,11.9,12.2,69,71,14.4,14.8,5.0,4.0
2020-09-21T08:20:00Z,44490,9300300,West Bay of Fundy,0.0,44.66056,-66.3686,18,2020-09-21T08:20:00.000Z,110,2020-09-21T08:23:07.603Z,44.66253,100,-66.36605,100,11.5,100,13.1,100,12.7,100,0.0,100,3.5,100,,-1,,-1,,-1,,-1,,-1,,-1,,-1,,-1,1035.2,100,11.5,100,66,100,13.7,100,5.0,100,3,1,0.9,1,1035.2,1,1035.2,1035.1,11.5,11.9,66,68,13.7,14.0,5.0,4.0
2020-09-21T08:30:00Z,44490,9300300,West Bay of Fundy,0.0,44.66056,-66.3686,18,2020-09-21T08:30:00.000Z,110,2020-09-21T08:33:09.370Z,44.66247,100,-66.36578,100,11.5,100,13.1,100,12.7,100,0.0,100,3.5,100,,-1,,-1,,-1,,-1,,-1,,-1,,-1,,-1,1035.3,100,11.9,100,62,100,14.0,100,5.0,100,3,1,1.0,1,1035.3,1,1035.3,1035.2,11.9,12.2,62,64,14.0,14.4,5.0,4.0
2020-09-21T08:40:00Z,44490,9300300,West Bay of Fundy,0.0,44.66056,-66.3686,18,2020-09-21T08:40:00.000Z,110,2020-09-21T08:43:06.569Z,44.66243,100,-66.3657,100,11.6,100,13.1,100,12.6,100,0.0,100,3.5,100,,-1,,-1,,-1,,-1,,-1,,-1,,-1,,-1,1035.3,100,12.2,100,62,100,15.5,100,5.0,100,3,1,1.1,1,1035.3,1,1035.3,1035.3,12.2,12.6,62,64,15.5,15.5,5.0,4.0
2020-09-21T08:50:00Z,44490,9300300,West Bay of Fundy,0.0,44.66056,-66.3686,18,2020-09-21T08:50:00.000Z,110,2020-09-21T08:53:11.531Z,44.66238,100,-66.36561999999999,100,11.6,100,13.1,100,12.6,100,0.0,100,3.5,100,,-1,,-1,,-1,,-1,,-1,,-1,,-1,,-1,1035.4,100,12.2,100,62,100,14.8,100,5.0,100,3,1,1.1,1,1035.4,1,1035.4,1035.3,12.2,12.6,62,64,14.8,15.1,5.0,4.0
2020-09-21T09:00:00Z,44490,9300300,West Bay of Fundy,0.0,44.66056,-66.3686,18,2020-09-21T09:00:00.000Z,108,2020-09-21T09:03:15.324Z,44.66238,100,-66.3656,100,11.6,100,13.1,100,12.6,100,0.0,100,3.5,100,0.3,100,0.9,100,9.9,100,0.5,100,0.6,100,15.6,100,5.1,100,16.7,100,1035.5,100,13.7,100,57,100,18.0,100,5.0,100,3,1,1.3,1,1035.5,1,1035.5,1035.5,13.7,14.0,57,58,18.0,18.0,5.0,4.0
2020-09-21T09:10:00Z,44490,9300300,West Bay of Fundy,0.0,44.66056,-66.3686,18,2020-09-21T09:10:00.000Z,110,2020-09-21T09:16:17.448Z,44.66245,100,-66.3658,100,11.6,100,13.1,100,12.7,100,0.0,100,3.5,100,,-1,,-1,,-1,,-1,,-1,,-1,,-1,,-1,1035.6,100,16.6,100,44,100,22.3,100,5.0,100,2,1,1.3,1,1035.6,1,1035.6,1035.5,16.6,16.6,44,47,22.3,22.0,5.0,4.0
2020-09-21T09:20:00Z,44490,9300300,West Bay of Fundy,0.0,44.66056,-66.3686,18,2020-09-21T09:20:00.000Z,110,2020-09-21T09:23:22.514Z,44.66243,100,-66.36577,100,11.2,100,13.1,100,12.6,100,0.0,100,3.5,100,,-1,,-1,,-1,,-1,,-1,,-1,,-1,,-1,1035.6,100,18.4,100,46,100,21.2,100,5.0,100,2,1,1.2,1,1035.6,1,1035.6,1035.5,18.4,18.4,46,48,21.2,21.2,5.0,4.0
2020-09-21T09:30:00Z,44490,9300300,West Bay of Fundy,0.0,44.66056,-66.3686,18,2020-09-21T09:30:00.000Z,110,2020-09-21T09:33:26.462Z,44.66243,100,-66.3658,100,11.0,100,13.1,100,12.7,100,0.0,100,3.5,100,,-1,,-1,,-1,,-1,,-1,,-1,,-1,,-1,1035.6,100,19.4,100,44,100,22.3,100,5.0,100,1,1,1.2,1,1035.6,1,1035.6,1035.6,19.4,19.1,44,46,22.3,22.0,5.0,4.0
2020-09-21T09:40:00Z,44490,9300300,West Bay of Fundy,0.0,44.66056,-66.3686,18,2020-09-21T09:40:00.000Z,110,2020-09-21T09:43:32.453Z,44.66247,100,-66.36588,100,10.8,100,13.1,100,12.6,100,0.0,100,3.5,100,,-1,,-1,,-1,,-1,,-1,,-1,,-1,,-1,1035.7,100,19.4,100,44,100,22.3,100,5.0,100,1,1,1.3,1,1035.7,1,1035.7,1035.7,19.4,19.1,44,46,22.3,22.0,5.0,4.0
2020-09-21T09:50:00Z,44490,9300300,West Bay of Fundy,0.0,44.66056,-66.3686,18,2020-09-21T09:50:00.000Z,110,2020-09-21T09:53:28.799Z,44.66247,100,-66.36591999999999,100,10.8,100,13.1,100,12.6,100,0.0,100,3.5,100,,-1,,-1,,-1,,-1,,-1,,-1,,-1,,-1,1035.7,100,18.4,100,46,100,21.2,100,5.0,100,1,1,1.2,1,1035.7,1,1035.7,1035.7,18.4,18.0,46,48,21.2,21.2,5.0,4.0
2020-09-21T10:00:00Z,44490,9300300,West Bay of Fundy,0.0,44.66056,-66.3686,18,2020-09-21T10:00:00.000Z,108,2020-09-21T10:04:19.517Z,44.6625,100,-66.36595,100,10.8,100,13.1,100,12.6,100,0.0,100,3.5,100,0.4,100,1.2,100,10.1,100,0.6,100,0.9,100,15.4,100,5.4,100,18.2,100,1035.8,100,17.6,100,50,100,20.5,100,5.0,100,1,1,1.3,1,1035.8,1,1035.8,1035.8,17.6,17.6,50,51,20.5,20.9,5.0,4.0
2020-09-21T10:10:00Z,44490,9300300,West Bay of Fundy,0.0,44.66056,-66.3686,18,2020-09-21T10:10:00.000Z,110,2020-09-21T10:16:34.195Z,44.66248,100,-66.36591999999999,100,10.9,100,13.1,100,12.6,100,0.0,100,3.5,100,,-1,,-1,,-1,,-1,,-1,,-1,,-1,,-1,1035.9,100,18.4,100,48,100,22.7,100,5.0,100,2,1,1.2,1,1035.9,1,1035.9,1035.9,18.4,18.4,48,50,22.7,22.3,5.0,4.0